Location: Marstown
(39.5056°N, 77.0820°W)
Time: 00:25:03
(UTC-04:00)

Hubble Space Telescope - Visible Passes

Search period start: 25 September 2017 00:00
Search period end: 05 October 2017 00:00
Orbit: 538 x 541 km, 28.5° (Epoch: 24 September)

Date Brightness Start Highest point End Pass type
(mag) Time Alt. Az. Time Alt. Az. Time Alt. Az.
01 Oct 3.2 06:36:39 10° SSW 06:38:52 14° S 06:41:05 10° SE visible
02 Oct 3.1 06:26:07 10° SSW 06:28:36 15° S 06:31:04 10° SE visible
03 Oct 3.0 06:15:40 10° SSW 06:18:19 16° S 06:20:58 10° SE visible
04 Oct 2.9 06:05:18 10° SW 06:08:03 17° S 06:10:49 10° SE visible
